This is the latest recevied weather packets stored in our database for station/object E24CR-1. If no packets are shown the sender has not sent any weather packets the latest 10 day(s).
| Time | Temp. | Humidity | Pressure | Rain* | Wind** | Luminosity | Snow |
|---|---|---|---|---|---|---|---|
| 1777857707 | 31.67° C | 46% | 953 hPa | - | - | 0 W/m² | - |
| 1777857082 | 30.56° C | 47% | 953 hPa | - | - | 0 W/m² | - |
| 1777856458 | 29.44° C | 51% | 953 hPa | - | - | 0 W/m² | - |
| 1777855834 | 28.89° C | 52% | 953 hPa | - | - | 0 W/m² | - |
| 1777855210 | 28.33° C | 54% | 953 hPa | - | - | 0 W/m² | - |
| 1777854586 | 27.78° C | 55% | 953 hPa | - | - | 0 W/m² | - |
| 1777853962 | 27.22° C | 55% | 953 hPa | - | - | 0 W/m² | - |
| 1777853337 | 27.22° C | 56% | 953 hPa | - | - | 0 W/m² | - |
| 1777852713 | 26.67° C | 57% | 952 hPa | - | - | 0 W/m² | - |
| 1777852082 | 26.67° C | 57% | 952 hPa | - | - | 0 W/m² | - |
| 1777851458 | 26.67° C | 56% | 952 hPa | - | - | 0 W/m² | - |
| 1777850834 | 26.67° C | 55% | 952 hPa | - | - | 0 W/m² | - |
| 1777850210 | 26.67° C | 56% | 952 hPa | - | - | 0 W/m² | - |
| 1777849586 | 26.11° C | 57% | 952 hPa | - | - | 0 W/m² | - |
| 1777848962 | 26.67° C | 56% | 952 hPa | - | - | 0 W/m² | - |
| 1777848338 | 26.67° C | 56% | 952 hPa | - | - | 0 W/m² | - |
| 1777847714 | 26.67° C | 55% | 952 hPa | - | - | 0 W/m² | - |
| 1777847090 | 26.67° C | 56% | 952 hPa | - | - | 0 W/m² | - |
| 1777846465 | 26.67° C | 56% | 952 hPa | - | - | 0 W/m² | - |
| 1777845832 | 26.67° C | 55% | 951 hPa | - | - | 0 W/m² | - |
| 1777845208 | 26.67° C | 56% | 951 hPa | - | - | 0 W/m² | - |
| 1777844584 | 26.11° C | 57% | 951 hPa | - | - | 0 W/m² | - |
| 1777843960 | 26.67° C | 57% | 951 hPa | - | - | 0 W/m² | - |
| 1777843336 | 27.22° C | 55% | 951 hPa | - | - | 0 W/m² | - |
| 1777842712 | 27.22° C | 54% | 951 hPa | - | - | 0 W/m² | - |
* Rain since midnight (hover to see other rain measurements)
** Current wind speed in m/s (hover to see current wind gust speed)